Temperature
2 2 2 3 3 3 3 3 4 4 3 4 3 2 2 1 2 2 2 3 3 4 4 5 5 5 5 6 6 6 6 6 6 6 5 5 5 5 5 4 4 4 4 3
1 2 2 2 2 3 3 3 3 3 3 3 2 1 1 1 1 1 1 2 3 3 4 4 4 5 5 5 5 5 5 5 5 5 4 4 4 4 4 4 4 3 3 3
1 1 2 2 1 2 2 2 3 3 3 2 1 1 0 1 1 1 1 2 2 3 3 3 4 4 4 4 4 4 5 5 4 4 4 4 4 4 3 3 3 3 3 3
-0 1 2 2 1 1 1 1 1 2 1 1 1 1 1 1 1 1 1 2 2 2 3 3 3 3 3 3 3 4 4 4 3 3 3 3 3 3 3 3 2 2 2 2
-1 0 0 1 0 -0 0 0 0 1 1 0 0 0 0 1 1 1 2 2 2 2 2 3 3 3 3 3 3 3 3 3 3 3 3 3 3 2 2 2 2 2 1 1
-1 0 1 0 -1 -1 0 0 -0 -0 -1 -1 -0 0 -1 0 1 1 1 1 2 2 2 2 2 2 2 2 2 2 2 2 2 2 2 2 2 2 1 1 1 1 1 1
-2 -1 -1 -2 -2 -0 1 0 -1 -1 -1 -1 -1 -1 -1 -0 -0 0 1 1 1 1 1 1 2 2 2 2 1 1 1 1 1 1 1 1 1 1 1 0 0 0 0 0
-3 -2 -1 -3 -2 -1 -1 -1 -1 -1 -1 -1 -2 -1 -1 -1 -0 -0 -0 0 0 0 1 1 1 1 1 1 1 1 1 1 1 1 1 0 0 0 -0 -0 -0 -0 -1 -1
-3 -3 -3 -3 -3 -2 -2 -2 -2 -2 -2 -2 -2 -2 -2 -1 -1 -1 -1 -0 -0 -0 -0 0 0 0 0 0 0 0 0 0 0 0 0 -0 -0 -0 -1 -1 -1 -1 -2 -2
-4 -4 -4 -4 -3 -2 -2 -2 -2 -2 -2 -2 -2 -3 -3 -2 -2 -2 -1 -1 -1 -1 -1 -1 -1 -1 -1 -1 -1 -0 -0 -0 -0 -0 -0 -1 -1 -1 -1 -1 -2 -2 -2 -2
-5 -5 -4 -4 -4 -3 -3 -2 -2 -2 -2 -2 -2 -3 -3 -3 -3 -2 -2 -2 -2 -1 -1 -1 -1 -1 -1 -1 -1 -1 -1 -1 -1 -1 -1 -1 -1 -2 -2 -2 -3 -3 -3 -3
-4 -4 -5 -5 -4 -4 -3 -3 -3 -3 -3 -3 -3 -3 -3 -3 -3 -3 -3 -2 -2 -2 -2 -2 -2 -2 -2 -2 -2 -2 -2 -2 -2 -2 -2 -2 -2 -2 -2 -3 -3 -3 -3 -3
-5 -5 -5 -5 -4 -4 -4 -4 -4 -3 -3 -4 -4 -4 -4 -4 -4 -3 -3 -3 -3 -3 -3 -3 -3 -3 -3 -3 -3 -3 -3 -3 -3 -3 -3 -3 -3 -3 -3 -3 -3 -3 -3 -3
-5 -5 -5 -5 -5 -5 -4 -4 -4 -4 -4 -4 -4 -4 -4 -4 -4 -4 -4 -4 -4 -4 -4 -4 -4 -4 -4 -4 -4 -4 -4 -4 -4 -4 -4 -4 -4 -4 -4 -4 -4 -3 -3 -4
-5 -5 -5 -6 -5 -5 -5 -5 -5 -5 -5 -5 -5 -5 -5 -5 -5 -5 -5 -5 -5 -5 -5 -5 -5 -5 -5 -5 -5 -4 -4 -4 -4 -4 -4 -5 -5 -5 -5 -5 -5 -5 -4 -4
-6 -6 -6 -6 -6 -6 -6 -5 -5 -6 -6 -6 -5 -5 -5 -5 -5 -5 -5 -5 -5 -5 -5 -5 -5 -5 -5 -5 -5 -5 -5 -5 -5 -5 -5 -5 -5 -5 -5 -5 -5 -5 -5 -5
-6 -7 -6 -6 -6 -6 -6 -6 -6 -6 -6 -6 -6 -6 -6 -6 -6 -6 -6 -6 -6 -6 -6 -6 -6 -6 -6 -6 -6 -6 -6 -6 -6 -6 -6 -6 -6 -6 -6 -6 -6 -6 -6 -6
-6 -6 -6 -6 -6 -6 -6 -6 -6 -6 -6 -6 -6 -6 -6 -6 -6 -6 -6 -7 -7 -7 -6 -7 -7 -7 -7 -7 -7 -7 -7 -7 -7 -7 -7 -7 -7 -7 -7 -7 -7 -7 -6 -6
-7 -7 -7 -7 -7 -7 -7 -7 -7 -7 -7 -7 -7 -7 -7 -7 -7 -7 -7 -7 -7 -7 -7 -7 -7 -7 -7 -7 -7 -7 -7 -7 -7 -7 -7 -7 -7 -7 -7 -7 -7 -7 -7 -7
-7 -7 -7 -7 -7 -7 -7 -7 -7 -7 -7 -7 -7 -7 -7 -7 -8 -8 -8 -8 -8 -8 -8 -8 -8 -8 -8 -8 -8 -8 -8 -8 -8 -8 -8 -8 -8 -8 -8 -8 -8 -7 -7 -7
-7 -7 -7 -7 -7 -7 -7 -7 -8 -7 -8 -8 -8 -8 -8 -8 -8 -8 -8 -8 -8 -8 -8 -8 -8 -8 -8 -8 -8 -8 -8 -8 -8 -9 -8 -8 -8 -8 -8 -8 -8 -8 -8 -7
-8 -8 -8 -8 -8 -8 -8 -8 -8 -8 -8 -8 -8 -8 -8 -8 -8 -9 -9 -9 -8 -9 -9 -9 -9 -9 -9 -9 -9 -9 -9 -9 -9 -9 -9 -9 -8 -8 -8 -8 -8 -8 -8 -8
-8 -8 -8 -8 -8 -8 -8 -8 -8 -8 -8 -8 -8 -9 -9 -9 -9 -9 -9 -9 -9 -9 -9 -9 -9 -9 -9 -9 -9 -9 -9 -9 -9 -9 -9 -8 -8 -8 -8 -8 -8 -8 -8 -8
-9 -9 -9 -9 -9 -9 -9 -9 -9 -9 -9 -9 -9 -9 -9 -9 -9 -9 -9 -9 -9 -9 -9 -9 -9 -9 -9 -9 -9 -9 -9 -9 -9 -9 -9 -9 -8 -8 -8 -8 -8 -8 -8 -8
-9 -9 -9 -9 -9 -9 -9 -9 -9 -9 -9 -9 -9 -9 -9 -10 -10 -9 -9 -9 -9 -10 -9 -9 -9 -9 -9 -9 -9 -9 -9 -9 -9 -9 -9 -9 -8 -8 -8 -8 -8 -8 -8 -8
-10 -10 -10 -10 -10 -10 -10 -10 -10 -10 -10 -10 -10 -10 -10 -10 -10 -10 -10 -10 -10 -10 -10 -9 -9 -9 -9 -9 -9 -9 -9 -9 -9 -9 -9 -9 -9 -8 -8 -8 -8 -8 -8 -8
-10 -10 -10 -10 -10 -10 -10 -10 -10 -10 -10 -10 -10 -10 -10 -10 -10 -10 -10 -10 -10 -10 -10 -10 -10 -10 -10 -10 -10 -10 -9 -9 -9 -9 -9 -9 -9 -9 -8 -8 -8 -8 -8 -8
Wind_Speed
1 1 3 4 6 6 6 8 7 7 6 5 3 2 1 2 4 5 4 4 4 4 3 4 4 4 4 4 4 4 4 4 3 2 2 1 1 1 1 1 1 1 1 2
1 1 2 1 3 5 6 5 5 3 4 2 1 2 2 2 4 4 3 3 3 3 3 3 3 3 4 4 3 4 4 3 2 2 2 1 1 0 0 0 1 1 1 2
1 1 3 2 4 5 4 3 6 8 7 4 2 2 2 2 3 4 2 2 2 2 2 2 2 3 3 3 4 4 4 3 2 2 1 0 1 1 0 1 1 1 2 2
2 2 4 3 1 2 3 2 3 3 4 5 4 3 1 1 3 3 2 2 2 2 2 2 3 3 4 4 4 4 3 3 2 2 1 1 1 0 1 1 1 2 3 3
2 2 2 2 1 0 2 2 2 4 4 3 4 4 2 1 2 2 2 2 2 2 2 3 4 3 5 5 4 4 3 2 1 1 1 1 1 1 1 1 2 2 3 3
2 2 4 2 3 3 1 1 2 2 3 3 4 2 2 1 3 3 4 4 4 4 4 5 4 4 5 4 4 3 1 1 1 1 1 1 0 1 1 1 2 2 3 3
2 2 3 4 5 1 4 3 2 1 2 2 2 2 2 3 4 4 5 5 5 5 5 4 3 4 5 4 3 2 2 2 2 1 1 1 1 1 1 2 2 2 3 4
2 2 4 5 2 2 2 1 2 2 2 3 4 4 5 5 5 5 5 5 5 5 5 4 4 5 5 3 3 3 3 2 2 2 1 1 1 1 1 1 2 2 3 4
3 3 2 2 1 2 1 2 2 2 2 4 4 4 5 5 5 5 5 4 4 5 5 5 5 4 4 3 3 3 3 3 2 2 1 1 1 1 1 1 1 3 3 4
1 2 2 3 3 4 3 2 2 3 3 4 5 5 5 5 5 4 4 4 4 5 5 4 4 4 3 3 3 3 3 3 2 2 2 2 1 1 1 2 2 3 3 4
0 1 2 4 4 3 4 4 5 5 4 4 6 5 4 4 4 4 4 3 4 4 3 3 4 4 4 3 3 3 2 2 2 2 2 2 2 2 2 2 3 3 3 4
2 2 1 1 3 3 4 4 4 5 5 4 4 4 4 4 3 3 3 3 4 4 3 3 3 4 4 4 3 2 2 2 2 2 2 2 2 3 4 5 6 7 7 6
1 1 1 0 3 3 3 4 4 4 4 4 4 4 4 3 3 3 3 3 3 3 2 3 3 3 4 4 3 2 2 2 2 2 2 2 2 2 4 6 7 7 8 8
1 2 2 2 2 3 4 4 5 5 5 4 3 4 4 3 3 3 2 2 2 2 2 2 3 3 4 4 3 3 3 3 3 2 2 2 3 3 3 4 5 5 6 9
4 2 2 2 3 4 4 4 5 5 4 4 3 3 3 3 2 2 2 2 2 2 2 2 3 4 4 3 3 3 3 2 2 2 3 3 3 3 3 4 4 5 5 6
3 4 4 3 3 3 3 3 3 2 2 2 2 2 2 2 2 2 2 2 1 2 2 3 3 4 4 3 3 3 3 5 5 3 3 3 3 3 3 3 4 4 4 4
2 2 2 2 2 2 2 1 1 1 1 2 1 1 2 2 2 2 3 2 2 2 3 3 4 4 4 3 3 3 3 4 6 4 3 3 3 3 3 3 3 4 4 5
1 1 1 1 1 0 1 2 1 1 1 1 1 2 2 1 1 2 2 2 2 3 3 3 4 4 3 3 2 2 3 3 3 3 3 3 3 3 3 3 4 4 4 5
2 1 1 1 0 1 0 1 1 1 1 1 1 1 1 1 1 2 2 2 3 4 4 4 5 4 4 4 4 2 3 3 3 3 3 4 4 3 3 3 4 4 4 4
2 2 2 2 1 1 1 1 1 1 1 1 1 1 1 2 2 2 2 3 3 4 4 5 4 4 4 4 5 2 3 3 3 3 3 3 3 3 3 3 4 4 4 4
1 2 2 2 2 2 1 1 1 1 2 1 1 1 2 2 2 2 2 3 4 4 4 6 4 3 3 3 4 2 2 3 3 3 3 3 3 3 3 3 4 4 4 4
1 1 1 1 1 2 2 1 1 1 1 2 2 1 2 2 3 3 3 4 4 6 4 3 3 4 5 5 3 2 3 3 3 3 3 3 3 3 4 4 4 4 4 4
1 1 1 1 1 2 3 2 1 1 2 2 2 2 3 3 3 3 4 3 3 5 4 4 5 7 7 4 2 2 2 2 3 3 3 3 3 3 4 4 4 4 4 4
1 1 2 1 1 1 2 3 2 2 2 3 3 3 3 3 3 3 3 5 6 6 4 5 7 7 6 3 2 2 2 3 3 3 3 3 3 3 4 4 4 4 4 4
1 1 1 1 1 2 2 2 3 3 3 3 3 3 3 2 3 3 3 4 5 6 4 5 6 6 4 2 2 2 3 3 3 3 3 3 3 3 4 4 4 3 3 3
1 1 2 2 2 2 2 2 2 2 2 3 3 3 2 2 2 3 3 3 4 5 4 3 3 4 3 3 3 3 3 3 4 3 3 3 4 4 4 4 4 3 3 3
1 1 1 2 2 2 2 2 2 3 3 3 3 3 3 2 2 2 2 2 2 2 3 3 2 2 2 2 3 3 3 3 3 3 3 3 3 3 4 4 3 3 3 3
Wind_Direction
285 194 160 183 196 190 193 189 190 216 218 237 237 214 135 103 99 89 77 71 72 74 74 78 86 93 100 102 106 119 123 126 136 136 132 132 153 184 195 209 239 243 258 276
356 94 129 191 216 202 209 199 202 199 247 250 115 95 95 118 121 113 99 87 76 74 82 84 85 91 94 94 97 107 111 111 107 105 105 121 140 116 80 310 288 284 274 278
244 354 79 241 230 202 202 209 189 211 219 165 136 148 164 168 144 141 139 117 100 84 89 89 89 92 92 91 88 89 91 88 88 102 110 122 96 70 356 294 313 300 287 284
129 92 204 240 277 193 185 226 223 199 171 168 167 141 101 142 148 143 141 128 104 90 75 60 68 80 82 80 79 79 76 75 76 85 80 54 61 19 310 303 286 280 285 285
141 171 263 303 327 78 172 296 296 186 162 130 114 88 36 44 108 139 143 129 116 104 94 76 68 79 87 77 71 68 62 59 58 82 76 53 23 335 310 301 297 290 287 287
130 158 215 264 310 306 133 294 333 152 166 148 127 160 231 77 73 82 90 93 90 84 79 71 53 67 81 76 66 51 24 12 37 64 81 58 349 314 318 307 296 302 301 291
160 194 260 305 311 354 154 238 325 104 154 152 176 177 131 97 75 83 88 85 86 84 75 63 53 67 74 66 41 359 0 17 35 37 56 74 37 352 343 331 325 313 306 304
139 164 253 332 31 139 230 355 41 56 71 104 106 96 96 95 89 85 83 76 77 79 67 50 50 64 62 42 4 6 22 26 36 36 31 38 43 3 353 346 337 321 317 318
174 200 296 329 308 326 17 60 30 50 75 109 103 99 93 86 85 81 83 77 70 79 66 42 36 51 52 7 2 23 33 35 35 34 32 23 24 354 346 342 327 319 320 316
103 321 330 348 357 10 31 52 56 77 90 105 108 107 98 93 83 74 70 70 71 74 65 37 25 31 29 358 5 33 36 22 14 24 11 1 348 338 327 316 309 305 308 308
133 279 344 1 7 16 45 57 62 59 68 98 110 106 102 96 83 75 67 61 68 73 66 37 23 22 11 4 17 32 29 10 357 355 340 337 334 313 303 275 285 295 290 292
218 230 197 286 343 17 53 50 56 66 59 64 92 106 100 93 80 77 67 59 57 55 51 30 24 17 4 1 13 25 12 358 342 332 324 321 321 324 324 319 315 313 309 303
260 337 127 97 21 31 52 48 53 59 72 74 75 93 96 91 77 71 65 54 52 49 43 30 23 9 356 356 2 9 348 330 323 323 314 313 315 321 323 329 327 322 321 320
29 70 71 47 45 41 54 57 63 60 56 65 81 87 90 87 77 66 55 42 44 47 35 24 15 355 344 352 358 355 340 326 328 315 306 297 296 299 299 306 316 319 322 323
12 43 116 90 61 49 53 66 66 54 49 46 61 74 82 82 66 43 34 35 36 31 17 10 359 340 339 347 348 340 331 321 315 306 304 300 301 304 302 299 300 307 316 323
21 55 80 81 65 53 53 61 68 52 45 43 45 52 65 79 69 39 18 17 30 1 344 342 333 325 333 338 335 329 322 324 325 319 312 311 310 305 303 300 302 307 313 318
77 53 64 58 40 36 38 45 76 55 38 27 20 51 68 64 46 23 6 5 359 326 318 314 310 315 322 322 318 314 315 315 321 320 315 309 306 299 295 297 302 305 307 313
124 155 159 171 183 83 18 31 50 38 6 342 26 52 54 51 4 334 339 350 351 336 322 308 304 311 314 314 309 301 299 302 308 307 308 308 306 301 299 300 302 306 311 315
60 75 67 71 123 138 359 353 2 13 6 20 51 33 10 341 309 315 333 344 330 318 314 309 316 323 315 311 312 298 297 300 304 303 302 302 306 305 303 303 305 308 310 314
47 53 51 46 45 53 7 349 10 13 353 359 35 16 352 334 325 322 327 309 290 282 290 300 305 301 298 300 308 294 288 288 289 293 296 294 297 301 304 305 307 307 308 309
11 18 23 27 23 13 357 336 346 324 327 341 318 292 295 305 309 300 298 298 300 298 301 306 307 297 302 304 306 290 283 284 284 285 285 290 295 298 300 304 305 304 306 308
331 345 345 351 359 344 337 335 310 290 305 317 314 303 298 305 310 305 283 270 286 304 311 299 294 301 310 308 297 291 285 283 283 283 283 286 289 292 296 300 299 300 304 306
295 299 313 322 315 310 322 324 310 289 281 280 280 279 275 276 280 280 293 294 293 304 309 294 299 309 312 312 299 289 286 285 285 283 281 281 281 285 289 294 295 298 301 304
305 313 314 318 325 326 318 315 314 302 287 283 278 271 266 277 289 278 268 289 303 308 305 301 309 312 314 316 306 293 287 283 280 280 280 280 279 281 284 287 291 295 297 301
300 304 307 308 307 292 288 304 319 316 309 301 295 288 274 258 263 283 286 285 294 305 306 309 314 317 323 316 305 296 287 279 277 279 278 280 284 285 284 285 286 292 296 299
286 285 283 273 265 270 282 289 291 294 296 301 306 305 300 289 273 276 282 284 286 302 308 308 313 316 316 310 303 299 292 290 291 287 285 285 285 285 285 286 288 288 293 298
311 301 297 300 295 271 265 265 269 279 279 277 290 297 296 292 288 289 290 296 301 307 309 310 312 309 308 306 304 302 299 296 293 289 288 286 285 286 289 288 291 297 305 308
Height
1434 1432 1433 1434 1436 1438 1439 1441 1445 1444 1445 1443 1443 1444 1444 1445 1445 1446 1447 1448 1449 1450 1452 1454 1456 1459 1461 1464 1466 1469 1472 1474 1476 1478 1480 1482 1483 1484 1485 1485 1485 1485 1484 1484
1437 1433 1433 1435 1436 1436 1437 1440 1441 1443 1445 1442 1443 1444 1444 1445 1445 1446 1448 1449 1450 1451 1453 1455 1457 1459 1461 1463 1465 1468 1470 1472 1474 1476 1477 1479 1480 1480 1481 1481 1481 1481 1481 1480
1441 1438 1434 1439 1438 1438 1438 1439 1438 1439 1439 1441 1443 1444 1445 1445 1446 1447 1448 1449 1450 1452 1453 1455 1456 1458 1460 1462 1464 1466 1468 1470 1472 1473 1474 1476 1477 1477 1477 1477 1477 1477 1477 1476
1444 1442 1440 1439 1437 1436 1436 1437 1437 1436 1437 1438 1441 1443 1445 1445 1446 1447 1448 1450 1451 1452 1454 1455 1457 1458 1460 1461 1463 1465 1466 1468 1469 1471 1472 1473 1473 1474 1474 1474 1474 1473 1473 1472
1445 1444 1441 1439 1438 1438 1437 1438 1437 1436 1437 1439 1440 1442 1445 1445 1446 1447 1449 1450 1451 1452 1454 1455 1456 1458 1459 1460 1462 1463 1465 1466 1467 1468 1469 1470 1470 1470 1470 1470 1470 1470 1469 1469
1446 1443 1439 1439 1438 1436 1437 1439 1437 1436 1437 1438 1440 1444 1446 1445 1446 1447 1448 1449 1451 1452 1454 1455 1456 1458 1459 1460 1461 1462 1463 1464 1465 1466 1467 1467 1467 1467 1467 1467 1467 1466 1466 1465
1446 1447 1444 1442 1438 1436 1441 1439 1438 1437 1437 1438 1440 1441 1444 1444 1445 1446 1448 1449 1451 1452 1454 1455 1457 1458 1458 1459 1460 1461 1462 1463 1463 1464 1464 1465 1465 1465 1464 1464 1463 1463 1462 1462
1449 1448 1447 1442 1439 1440 1440 1438 1437 1437 1438 1438 1439 1441 1442 1443 1444 1446 1447 1449 1451 1452 1454 1456 1457 1458 1458 1459 1459 1460 1460 1461 1461 1462 1462 1462 1462 1462 1462 1461 1460 1459 1459 1458
1447 1448 1445 1443 1441 1440 1439 1438 1438 1438 1438 1439 1439 1441 1442 1444 1445 1446 1448 1450 1451 1453 1454 1456 1457 1457 1458 1458 1459 1459 1459 1459 1460 1460 1460 1460 1460 1459 1459 1458 1457 1457 1456 1455
1447 1446 1444 1443 1441 1440 1439 1439 1439 1439 1439 1439 1440 1441 1443 1444 1446 1447 1449 1450 1452 1453 1454 1455 1456 1457 1457 1457 1458 1458 1458 1458 1458 1458 1458 1458 1457 1457 1456 1455 1455 1454 1453 1452
1447 1446 1444 1442 1442 1441 1440 1440 1440 1440 1440 1441 1441 1442 1444 1445 1446 1448 1449 1451 1452 1453 1454 1455 1455 1456 1456 1456 1456 1456 1456 1456 1456 1455 1455 1455 1455 1454 1453 1453 1453 1452 1450 1449
1445 1444 1444 1444 1443 1442 1441 1441 1441 1441 1441 1442 1443 1443 1444 1446 1447 1449 1450 1451 1452 1453 1453 1454 1454 1455 1455 1455 1454 1454 1453 1454 1453 1453 1453 1452 1452 1452 1451 1451 1450 1449 1448 1447
1444 1443 1443 1443 1443 1443 1442 1442 1442 1442 1442 1442 1444 1445 1445 1446 1448 1450 1451 1452 1452 1453 1453 1453 1453 1453 1453 1453 1452 1452 1451 1451 1451 1450 1450 1449 1449 1448 1447 1447 1446 1445 1444 1443
1443 1443 1443 1443 1443 1443 1443 1443 1443 1443 1443 1444 1444 1445 1446 1447 1449 1450 1451 1451 1452 1452 1452 1452 1452 1451 1451 1451 1450 1450 1449 1449 1448 1448 1447 1447 1446 1445 1444 1443 1442 1441 1440 1439
1444 1444 1444 1444 1444 1444 1444 1444 1444 1444 1444 1445 1445 1446 1447 1447 1448 1449 1450 1451 1451 1451 1450 1450 1450 1450 1449 1449 1448 1448 1447 1446 1446 1445 1444 1444 1443 1442 1441 1440 1439 1437 1436 1435
1444 1444 1444 1444 1444 1445 1445 1445 1444 1445 1445 1445 1445 1446 1447 1447 1448 1448 1449 1449 1449 1449 1449 1448 1448 1448 1447 1447 1446 1445 1445 1444 1443 1442 1441 1441 1440 1439 1438 1437 1436 1434 1433 1432
1445 1445 1445 1445 1445 1445 1445 1445 1445 1445 1445 1445 1445 1446 1446 1446 1447 1447 1448 1448 1447 1447 1447 1446 1446 1445 1445 1444 1444 1443 1442 1441 1440 1439 1438 1438 1437 1436 1435 1434 1433 1431 1430 1430
1446 1446 1446 1445 1445 1445 1445 1445 1445 1445 1445 1445 1445 1445 1445 1445 1445 1445 1445 1445 1445 1445 1445 1444 1443 1443 1442 1442 1441 1440 1439 1438 1437 1436 1435 1435 1434 1433 1432 1431 1430 1429 1427 1427
1445 1445 1445 1445 1445 1445 1445 1445 1445 1445 1445 1444 1444 1444 1444 1444 1444 1444 1444 1443 1443 1442 1442 1441 1440 1440 1439 1438 1438 1437 1436 1435 1434 1433 1433 1432 1431 1430 1429 1428 1427 1426 1425 1424
1445 1445 1445 1445 1445 1445 1444 1444 1444 1444 1444 1444 1443 1443 1443 1442 1442 1442 1441 1441 1440 1439 1439 1438 1437 1437 1436 1435 1435 1434 1433 1432 1431 1431 1430 1429 1429 1428 1427 1426 1425 1424 1423 1422
1445 1445 1444 1444 1444 1444 1444 1443 1443 1443 1443 1442 1442 1441 1441 1441 1440 1440 1439 1438 1437 1437 1436 1435 1434 1434 1433 1432 1431 1431 1430 1429 1428 1428 1427 1427 1426 1425 1424 1424 1423 1422 1421 1420
1444 1443 1443 1443 1443 1442 1442 1442 1442 1441 1441 1440 1440 1439 1439 1438 1438 1437 1436 1436 1435 1434 1433 1432 1431 1431 1430 1430 1429 1428 1427 1426 1426 1425 1425 1424 1423 1423 1422 1421 1421 1420 1419 1418
1442 1442 1442 1442 1441 1441 1440 1440 1440 1439 1438 1438 1437 1437 1436 1436 1435 1434 1433 1433 1432 1431 1431 1430 1429 1428 1428 1427 1426 1425 1424 1424 1423 1423 1422 1422 1421 1420 1420 1419 1418 1418 1417 1416
1441 1440 1440 1440 1439 1439 1438 1438 1437 1437 1436 1436 1435 1435 1434 1433 1433 1432 1431 1431 1430 1429 1428 1427 1426 1426 1425 1424 1423 1423 1422 1421 1421 1420 1420 1419 1419 1418 1418 1417 1416 1416 1415 1414
1439 1439 1438 1438 1437 1437 1436 1435 1435 1434 1434 1433 1433 1432 1432 1431 1430 1429 1429 1428 1427 1426 1425 1424 1424 1423 1422 1422 1421 1420 1420 1419 1418 1418 1417 1417 1416 1416 1415 1415 1414 1414 1413 1412
1438 1437 1437 1436 1436 1435 1434 1433 1432 1432 1431 1430 1430 1430 1429 1429 1428 1427 1426 1426 1425 1424 1423 1422 1421 1421 1420 1419 1419 1418 1417 1417 1416 1416 1415 1415 1414 1414 1413 1413 1412 1412 1411 1411
1436 1435 1435 1434 1434 1433 1432 1431 1430 1430 1429 1428 1427 1427 1427 1426 1426 1425 1424 1423 1423 1422 1421 1420 1419 1419 1418 1418 1417 1416 1416 1415 1414 1414 1413 1413 1412 1412 1411 1411 1411 1410 1410 1409